Date String (YYYY-MM-DD hh:mm:ss) UTC,Instrument flags,absolute air pressure of the measurement (hPa),sample flow rate (lpm),inlet stack bypass flow (lpm),air temperature of the measurement (°C),ambient temperature measured by the external sensor (°C),aerosol sample conditioner tube jacket temperature (°C),OPC LED temperature (°C),internal box temperature (°C),relative humidity of the measurement (%),span deviation,mass concentration of particles derived from Lorenz-Mie calculation of OPC scattering (μg/m³),mass concentration of particles derived from Lorenz-Mie calculation of OPC scattering (μg/m³),mass concentration of particles derived from Lorenz-Mie calculation of OPC scattering (μg/m³)
DateTimeUTC,F1_M11,P_M11,Q1_M11,Q2_M11,T1_M11,T2_M11,T3_M11,T4_M11,T5_M11,U1_M11,ZSPAN_M11,X2_M11,X0_M11,X1_M11
2023-10-02 19:00:00,SystemResetWarning,0826.6,4.99,000.00,028.4,026.8,000.0,036.8,030.2,25.0,0000.0,0004.74,0013.25,0003.80
2023-10-02 19:01:00,SystemResetWarning,0826.5,4.99,000.00,028.4,027.1,000.0,036.9,030.2,24.6,0000.0,0004.77,0012.96,0003.82
2023-10-02 19:02:00,SystemResetWarning,0826.4,5.00,000.00,028.5,027.3,000.0,036.9,030.3,23.4,0000.0,0004.81,0013.02,0003.83
2023-10-02 19:03:00,SystemResetWarning,0826.3,5.00,000.00,028.5,027.5,000.0,036.9,030.3,23.2,0000.0,0004.86,0013.70,0003.84
2023-10-02 19:04:00,SystemResetWarning,0826.2,4.99,000.00,028.5,026.7,000.0,036.9,030.4,22.7,0000.0,0004.87,0014.08,0003.84
2023-10-02 19:05:00,SystemResetWarning,0826.3,5.00,000.00,028.5,025.0,000.0,036.8,030.2,23.2,0000.0,0004.91,0014.04,0003.85
2023-10-02 19:06:00,SystemResetWarning,0826.2,5.02,000.00,028.4,024.6,000.0,036.8,030.1,23.2,0000.0,0004.97,0013.53,0003.87
2023-10-02 19:07:00,SystemResetWarning,0826.2,5.00,000.00,028.4,024.8,000.0,036.8,029.9,23.2,0000.0,0004.96,0013.12,0003.86
2023-10-02 19:08:00,SystemResetWarning,0826.1,5.00,000.00,028.3,025.2,000.0,036.8,029.9,23.4,0000.0,0004.92,0013.02,0003.85
2023-10-02 19:09:00,SystemResetWarning,0826.0,5.00,000.00,028.3,025.6,000.0,036.8,029.9,23.1,0000.0,0004.93,0012.36,0003.85
2023-10-02 19:10:00,SystemResetWarning,0826.0,5.00,000.00,028.3,026.1,000.0,036.8,030.0,22.8,0000.0,0004.88,0012.11,0003.86
2023-10-02 19:11:00,SystemResetWarning,0826.0,5.00,000.00,028.3,026.4,000.0,036.8,030.1,22.7,0000.0,0004.91,0012.26,0003.87
2023-10-02 19:12:00,SystemResetWarning,0826.0,5.00,000.00,028.4,026.7,000.0,036.8,030.1,22.9,0000.0,0004.90,0012.29,0003.86
2023-10-02 19:13:00,SystemResetWarning,0826.0,5.00,000.00,028.4,027.0,000.0,036.8,030.2,22.9,0000.0,0004.91,0012.24,0003.85
2023-10-02 19:14:00,SystemResetWarning,0825.9,5.00,000.00,028.4,027.3,000.0,036.8,030.3,22.5,0000.0,0004.86,0011.73,0003.85
2023-10-02 19:15:00,SystemResetWarning,0825.9,5.00,000.00,028.5,027.4,000.0,036.9,030.3,22.4,0000.0,0004.87,0011.28,0003.84
2023-10-02 19:16:00,SystemResetWarning,0825.9,4.99,000.00,028.5,026.1,000.0,036.8,030.3,22.5,0000.0,0004.88,0011.35,0003.84
2023-10-02 19:17:00,SystemResetWarning,0825.8,5.00,000.00,028.4,024.6,000.0,036.8,030.0,22.1,0000.0,0004.83,0011.26,0003.83
2023-10-02 19:18:00,SystemResetWarning,0825.8,5.01,000.00,028.4,024.5,000.0,036.7,030.0,22.5,0000.0,0004.79,0010.89,0003.82
2023-10-02 19:19:00,SystemResetWarning,0825.8,5.01,000.00,028.3,024.8,000.0,036.7,029.9,22.5,0000.0,0004.81,0010.75,0003.82
2023-10-02 19:20:00,SystemResetWarning,0825.8,5.00,000.00,028.2,025.3,000.0,036.7,029.8,22.4,0000.0,0004.80,0010.44,0003.81
2023-10-02 19:21:00,SystemResetWarning,0825.8,5.00,000.00,028.2,025.7,000.0,036.7,029.9,22.5,0000.0,0004.80,0011.08,0003.80
2023-10-02 19:22:00,SystemResetWarning,0825.8,4.99,000.00,028.3,026.1,000.0,036.7,030.0,22.3,0000.0,0004.76,0010.82,0003.78
2023-10-02 19:23:00,SystemResetWarning,0825.8,5.00,000.00,028.3,026.5,000.0,036.7,030.0,22.1,0000.0,0004.77,0010.77,0003.77
2023-10-02 19:24:00,SystemResetWarning,0825.7,5.00,000.00,028.3,026.8,000.0,036.8,030.1,22.0,0000.0,0004.75,0011.58,0003.75
2023-10-02 19:25:00,SystemResetWarning,0825.6,5.00,000.00,028.4,027.1,000.0,036.8,030.2,21.7,0000.0,0004.74,0012.22,0003.73
2023-10-02 19:26:00,SystemResetWarning,0825.6,5.00,000.00,028.4,027.3,000.0,036.8,030.3,22.1,0000.0,0004.68,0012.37,0003.72
2023-10-02 19:27:00,SystemResetWarning,0825.6,4.98,000.00,028.4,026.4,000.0,036.8,030.2,21.9,0000.0,0004.58,0012.23,0003.69
2023-10-02 19:28:00,SystemResetWarning,0825.6,5.01,000.00,028.4,024.8,000.0,036.7,030.0,22.6,0000.0,0004.52,0011.97,0003.66
2023-10-02 19:29:00,SystemResetWarning,0825.5,5.01,000.00,028.3,024.4,000.0,036.7,029.9,22.3,0000.0,0004.52,0012.22,0003.64
2023-10-02 19:30:00,SystemResetWarning,0825.5,5.00,000.00,028.2,024.7,000.0,036.6,029.8,21.7,0000.0,0004.46,0013.32,0003.61
2023-10-02 19:31:00,SystemResetWarning,0825.4,5.00,000.00,028.2,025.2,000.0,036.7,029.8,21.8,0000.0,0004.44,0014.77,0003.60
2023-10-02 19:32:00,SystemResetWarning,0825.4,5.00,000.00,028.2,025.6,000.0,036.7,029.8,21.8,0000.0,0004.44,0014.80,0003.60
2023-10-02 19:33:00,SystemResetWarning,0825.4,4.99,000.00,028.2,026.0,000.0,036.7,029.9,21.9,0000.0,0004.45,0015.61,0003.58
2023-10-02 19:34:00,SystemResetWarning,0825.4,5.01,000.00,028.2,026.4,000.0,036.7,030.0,21.7,0000.0,0004.37,0016.48,0003.55
2023-10-02 19:35:00,SystemResetWarning,0825.3,5.00,000.00,028.3,026.7,000.0,036.7,030.0,21.6,0000.0,0004.31,0015.74,0003.52
2023-10-02 19:36:00,SystemResetWarning,0825.3,5.00,000.00,028.3,027.0,000.0,036.7,030.1,22.3,0000.0,0004.28,0016.29,0003.51
2023-10-02 19:37:00,SystemResetWarning,0825.3,5.00,000.00,028.3,027.2,000.0,036.7,030.2,21.8,0000.0,0004.28,0016.33,0003.50
2023-10-02 19:38:00,SystemResetWarning,0825.3,4.99,000.00,028.4,027.3,000.0,036.8,030.3,21.2,0000.0,0004.33,0015.97,0003.49
2023-10-02 19:39:00,SystemResetWarning,0825.2,4.98,000.00,028.4,026.0,000.0,036.7,030.2,21.4,0000.0,0004.35,0016.36,0003.48
2023-10-02 19:40:00,SystemResetWarning,0825.1,5.01,000.00,028.3,024.6,000.0,036.7,030.0,21.2,0000.0,0004.30,0016.16,0003.45
2023-10-02 19:41:00,SystemResetWarning,0825.1,5.01,000.00,028.3,024.6,000.0,036.6,029.9,20.7,0000.0,0004.28,0015.72,0003.43
2023-10-02 19:42:00,SystemResetWarning,0825.1,4.99,000.00,028.2,024.9,000.0,036.6,029.8,20.5,0000.0,0004.24,0013.95,0003.39
2023-10-02 19:43:00,SystemResetWarning,0825.1,5.00,000.00,028.2,025.3,000.0,036.6,029.8,21.0,0000.0,0004.22,0013.52,0003.36
2023-10-02 19:44:00,SystemResetWarning,0825.1,5.00,000.00,028.2,025.8,000.0,036.6,029.8,21.4,0000.0,0004.18,0013.11,0003.34
2023-10-02 19:45:00,SystemResetWarning,0825.0,5.01,000.00,028.2,026.2,000.0,036.7,029.9,21.4,0000.0,0004.16,0012.53,0003.32
2023-10-02 19:46:00,SystemResetWarning,0825.0,5.00,000.00,028.2,026.5,000.0,036.7,030.0,21.3,0000.0,0004.15,0012.48,0003.30
2023-10-02 19:47:00,SystemResetWarning,0825.0,4.99,000.00,028.3,026.8,000.0,036.7,030.1,21.8,0000.0,0004.10,0011.28,0003.27
2023-10-02 19:48:00,SystemResetWarning,0825.0,4.99,000.00,028.3,027.1,000.0,036.7,030.2,21.8,0000.0,0004.06,0011.24,0003.23
2023-10-02 19:49:00,SystemResetWarning,0825.0,4.99,000.00,028.4,027.3,000.0,036.7,030.2,21.8,0000.0,0003.99,0011.49,0003.20
2023-10-02 19:50:00,SystemResetWarning,0825.0,5.00,000.00,028.4,026.2,000.0,036.7,030.2,21.6,0000.0,0003.95,0011.58,0003.16
2023-10-02 19:51:00,SystemResetWarning,0824.9,5.00,000.00,028.3,024.6,000.0,036.6,030.0,21.4,0000.0,0003.92,0011.73,0003.14
2023-10-02 19:52:00,SystemResetWarning,0824.9,5.01,000.00,028.3,024.4,000.0,036.6,029.9,21.4,0000.0,0003.83,0011.37,0003.11
2023-10-02 19:53:00,SystemResetWarning,0824.9,5.01,000.00,028.2,024.7,000.0,036.6,029.8,21.7,0000.0,0003.81,0011.28,0003.08
2023-10-02 19:54:00,SystemResetWarning,0824.9,5.00,000.00,028.1,025.2,000.0,036.6,029.8,21.4,0000.0,0003.74,0011.12,0003.03
2023-10-02 19:55:00,SystemResetWarning,0824.9,5.00,000.00,028.1,025.6,000.0,036.6,029.8,21.8,0000.0,0003.69,0011.50,0002.98
2023-10-02 19:56:00,SystemResetWarning,0824.9,5.00,000.00,028.2,026.0,000.0,036.6,029.9,21.7,0000.0,0003.62,0011.23,0002.94
2023-10-02 19:57:00,SystemResetWarning,0824.9,5.00,000.00,028.2,026.4,000.0,036.6,030.0,21.7,0000.0,0003.61,0011.35,0002.93
2023-10-02 19:58:00,SystemResetWarning,0824.9,5.00,000.00,028.2,026.7,000.0,036.6,030.1,21.9,0000.0,0003.60,0011.28,0002.93
2023-10-02 19:59:00,SystemResetWarning,0824.9,5.00,000.00,028.3,027.0,000.0,036.7,030.1,21.9,0000.0,0003.57,0010.61,0002.91
